Eastover, SC

7:47 PM EDT on April 27, 2017 (GMT -0400)
McEntire Angs

Weather History for KMMT - February, 2012

Change the Weather History Date:

Sunday, February 26, 2012

  Actual Average Record
Temperature  
Mean Temperature 46 °F -  
Max Temperature 58 °F 60 °F 77 °F (2001)
Min Temperature 34 °F 40 °F 30 °F (2004)
Degree Days  
Heating Degree Days 19    
Moisture  
Dew Point 24 °F    
Average Humidity 45    
Maximum Humidity 61    
Minimum Humidity 25    
Precipitation  
Precipitation 0.00 in - - ()
Sea Level Pressure  
Sea Level Pressure 30.44 in    
Wind  
Wind Speed 5 mph (East)    
Max Wind Speed 13 mph    
Max Gust Speed -    
Visibility 10 miles    
Events      
Averages and records for this station are not official NWS values.
T = Trace of Precipitation, MM = Missing Value Source: NWS Daily Summary

Daily Weather History Graph

Daily Weather History Graph

Search for Another Location

Airport or City:

Trip Planner

Search our weather history database for the weather conditions in past years. The results will help you decide how hot, cold, wet, or windy it might be!

Date:

Astronomy

Feb. 26, 2012 Rise Set
Actual Time 6:56 AM EST 6:16 PM EST
Civil Twilight 6:30 AM EST 6:41 PM EST
Nautical Twilight 6:01 AM EST 7:10 PM EST
Astronomical Twilight 5:33 AM EST 7:39 PM EST
Moon 9:06 AM EST (2/26) 10:55 PM EST (2/26)
Length of Visible Light 12h 10m
Length of Day
11h 20m
Waxing Crescent, 20% of the Moon is Illuminated
Feb 26
Waxing Crescent
Feb 29
First Quarter
Mar 8
Full
Mar 14
Last Quarter
Mar 22
New

Hourly Weather History & Observations

Time (EST) Temp. Windchill Dew Point Humidity Pressure Visibility Wind Dir Wind Speed Gust Speed Precip Events Conditions
12:55 AM 40.6 °F - 22.8 °F 49% 30.35 in 10.0 mi Calm Calm - N/A   Clear
1:55 AM 39.2 °F 35.9 °F 23.0 °F 52% 30.38 in 10.0 mi NE 4.6 mph - N/A   Clear
2:55 AM 37.9 °F 34.4 °F 22.5 °F 54% 30.38 in 10.0 mi ENE 4.6 mph - N/A   Clear
3:55 AM 36.5 °F 31.8 °F 22.1 °F 56% 30.40 in 10.0 mi ENE 5.8 mph - N/A   Clear
4:55 AM 34.9 °F 32.0 °F 22.8 °F 61% 30.43 in 10.0 mi ENE 3.5 mph - N/A   Clear
5:55 AM 35.1 °F 30.1 °F 21.9 °F 59% 30.44 in 10.0 mi ENE 5.8 mph - N/A   Clear
6:55 AM 35.8 °F 33.0 °F 21.7 °F 57% 30.46 in 10.0 mi East 3.5 mph - N/A   Clear
7:55 AM 36.9 °F 31.4 °F 20.1 °F 51% 30.48 in 10.0 mi East 6.9 mph - N/A   Mostly Cloudy
8:55 AM 39.0 °F 33.4 °F 20.5 °F 47% 30.50 in 10.0 mi East 8.1 mph - N/A   Mostly Cloudy
9:55 AM 40.8 °F 35.6 °F 18.5 °F 41% 30.53 in 10.0 mi East 8.1 mph - N/A   Mostly Cloudy
10:55 AM 46.2 °F 40.5 °F 18.5 °F 33% 30.51 in 10.0 mi ENE 12.7 mph - N/A   Mostly Cloudy
11:55 AM 49.5 °F - 18.3 °F 29% 30.51 in 10.0 mi East 10.4 mph - N/A   Scattered Clouds
12:55 PM 52.0 °F - 18.7 °F 27% 30.49 in 10.0 mi Variable 5.8 mph - N/A   Partly Cloudy
1:55 PM 55.0 °F - 19.9 °F 25% 30.46 in 10.0 mi SSE 6.9 mph - N/A   Partly Cloudy
2:55 PM 56.5 °F - 20.7 °F 25% 30.43 in 10.0 mi Calm Calm - N/A   Clear
3:55 PM 57.6 °F - 21.9 °F 25% 30.42 in 10.0 mi ESE 8.1 mph - N/A   Partly Cloudy
4:55 PM 58.3 °F - 23.4 °F 26% 30.41 in 10.0 mi SSE 9.2 mph - N/A   Clear
5:55 PM 54.7 °F - 24.8 °F 32% 30.42 in 10.0 mi SE 5.8 mph - N/A   Clear
6:55 PM 49.5 °F - 28.8 °F 45% 30.43 in 10.0 mi SE 4.6 mph - N/A   Mostly Cloudy
7:55 PM 46.0 °F 44.8 °F 30.0 °F 54% 30.44 in 10.0 mi East 3.5 mph - N/A   Partly Cloudy
8:55 PM 46.2 °F 44.1 °F 29.5 °F 52% 30.44 in 10.0 mi ENE 4.6 mph - N/A   Scattered Clouds
9:55 PM 47.5 °F - 29.7 °F 50% 30.46 in 10.0 mi East 4.6 mph - N/A   Overcast
10:50 PM 48.2 °F - 30.2 °F 50% 30.45 in 10.0 mi East 4.6 mph - N/A   Overcast
10:54 PM 48.2 °F - 30.2 °F 50% 30.45 in 10.0 mi East 4.6 mph - N/A   Overcast
10:55 PM 47.7 °F - 30.0 °F 50% 30.45 in 10.0 mi East 4.6 mph - N/A   Overcast
11:19 PM 48.2 °F - 32.0 °F 54% 30.45 in 10.0 mi ESE 5.8 mph - N/A   Overcast
11:55 PM 48.9 °F - 32.7 °F 54% 30.43 in 10.0 mi ESE 6.9 mph - N/A   Overcast